Flag for Taiwan Weather past 2 weeks in Taipei, Taiwan

Now
79 °F

Broken clouds.


Feels Like: 82 °F
Forecast: 76 / 89 °F
Wind: 9 mph from West

Location: Sungshan / Taipei

Current Time: Aug 31, 2015 at 8:51:03 AM

Latest Report: Aug 31, 2015 at 8:30 AM


Visibility: 6 mi

Pressure: 29.80 "Hg

Humidity: 84%

Dew point: 73 °F

Location of TaipeiLocation

Historic Weather in Taipei — Graph

°F

Taipei temperature yesterday

Maximum temperature yesterday: 82 °F (at 9:30 AM)
Minimum temperature yesterday: 77 °F (at 12:00 AM)
Average temperature yesterday: 79 °F

Past Weeks' High & Low Weather Summary

 TemperatureHumidityPressure
High93 °F (Aug 19, 11:30 AM)94% (Aug 18, 4:30 PM)29.86 "Hg (Aug 18, 4:30 PM)
Low75 °F (Aug 27, 1:00 AM)43% (Aug 16, 8:30 PM)29.36 "Hg (Aug 23, 12:30 PM)
Average83 °F76%29.68 "Hg
* Reported Aug 16 7:00 AM — Aug 31 7:30 AM, Taipei, Weather by CustomWeather, © 2015

Note: Actual official high and low records may vary slightly from our data, if they occured in-between our weather recording intervals... More about our weather records

Advertising

Taipei weather history for previous 24 hours

 ConditionsComfort  
Time TempWeatherWind HumidityBarometerVisibility
7:30 AM
Mon, Aug 31
79 °FLight rain. Partly sunny.3 mph89%29.77 "Hg5 mi
7:00 AM79 °FBroken clouds.6 mph89%29.77 "HgN/A
6:30 AM77 °FBroken clouds.1 mph89%29.77 "HgN/A
5:00 AM77 °FLight rain. Passing clouds.3 mph89%29.77 "HgN/A
4:00 AM77 °FLight rain. Partly cloudy.No wind89%29.77 "HgN/A
3:00 AM77 °FLight rain. Partly cloudy.6 mph89%29.74 "HgN/A
2:00 AM77 °FLight rain. Partly cloudy.9 mph89%29.77 "HgN/A
1:00 AM77 °FLight rain. Partly cloudy.9 mph89%29.77 "HgN/A
12:00 AM77 °FLight rain. Partly cloudy.9 mph89%29.77 "HgN/A
11:00 PM
Sun, Aug 30
77 °FLight rain. Partly cloudy.6 mph89%29.80 "HgN/A
10:30 PM77 °FLight rain. Partly cloudy.7 mph89%29.80 "HgN/A
10:00 PM77 °FLight rain. Partly cloudy.7 mph94%29.83 "Hg5 mi
9:45 PM77 °FLight rain. Partly cloudy.7 mph94%29.83 "Hg4 mi
9:30 PM77 °FRain. Partly cloudy.6 mph94%29.83 "Hg3 mi
9:00 PM77 °FRain. Partly cloudy.7 mph94%29.80 "Hg3 mi
8:30 PM77 °FRain. Partly cloudy.6 mph94%29.80 "Hg3 mi
8:00 PM77 °FLight rain. Passing clouds.6 mph94%29.80 "Hg4 mi
7:47 PM77 °FLight rain. Passing clouds.5 mph94%29.80 "Hg4 mi
7:30 PM79 °FLight rain. Passing clouds.5 mph84%29.77 "HgN/A
7:00 PM79 °FLight rain. Passing clouds.No wind84%29.77 "HgN/A
6:30 PM79 °FLight rain. Passing clouds.No wind84%29.77 "HgN/A
6:00 PM79 °FLight rain. Partly sunny.No wind84%29.77 "HgN/A
5:30 PM79 °FLight rain. Partly sunny.5 mph84%29.77 "HgN/A
5:00 PM81 °FDrizzle. Broken clouds.6 mph79%29.74 "HgN/A
4:30 PM81 °FDrizzle. Broken clouds.8 mph79%29.74 "HgN/A
4:00 PM81 °FDrizzle. Broken clouds.8 mph79%29.74 "HgN/A
3:30 PM82 °FDrizzle. Broken clouds.7 mph70%29.74 "HgN/A
3:00 PM82 °FDrizzle. Partly sunny.9 mph70%29.74 "HgN/A
2:30 PM82 °FLight rain. Partly sunny.9 mph70%29.74 "HgN/A
2:00 PM82 °FLight rain. Partly sunny.9 mph74%29.74 "HgN/A
1:30 PM82 °FLight rain. Partly sunny.10 mph70%29.77 "HgN/A
1:00 PM81 °FLight rain. Partly sunny.9 mph79%29.77 "HgN/A
12:30 PM81 °FLight rain. Partly sunny.9 mph74%29.77 "HgN/A
11:30 AM82 °FLight rain. Partly sunny.14 mph70%29.77 "HgN/A
11:00 AM82 °FLight rain. Partly sunny.13 mph70%29.80 "HgN/A
10:30 AM82 °FLight rain. Partly sunny.12 mph70%29.80 "HgN/A
10:00 AM82 °FLight rain. Partly sunny.6 mph74%29.80 "HgN/A
9:30 AM82 °FLight rain. Broken clouds.6 mph74%29.80 "HgN/A
9:00 AM81 °FBroken clouds.5 mph84%29.80 "Hg6 mi
8:30 AM81 °FBroken clouds.3 mph84%29.77 "Hg5 mi
8:00 AM81 °FLight rain. Broken clouds.1 mph84%29.77 "Hg5 mi
Weather by CustomWeather, © 2015

See weather overviewHow to use our weather pages